Location: Karcze
(52.0945°N, 22.4786°E)
Time: 18:30:01
(UTC+00:00)

Explorer 11/Cluster Stage 4 - All Passes

Search period start: 27 July 2021 00:00
Search period end: 06 August 2021 00:00
Orbit: 467 x 1257 km, 28.8° (Epoch: 26 July)

Date Brightness Start Highest point End Pass type
(mag) Time Alt. Az. Time Alt. Az. Time Alt. Az.
29 Jul - 10:37:27 10° S 10:38:01 10° S 10:38:34 10° S daylight
30 Jul - 10:25:02 10° SSW 10:26:34 11° S 10:28:05 10° S daylight
31 Jul - 10:13:09 10° SSW 10:15:06 11° S 10:17:01 10° S daylight
01 Aug - 08:14:43 10° S 08:16:12 11° S 08:17:41 10° SSE daylight
01 Aug - 10:01:29 10° SSW 10:03:38 11° S 10:05:44 10° S daylight
02 Aug - 08:02:36 10° S 08:04:43 11° S 08:06:48 10° SSE daylight
02 Aug - 09:49:59 10° SSW 09:52:08 11° S 09:54:16 10° S daylight
03 Aug - 07:50:47 10° S 07:53:12 11° S 07:55:37 10° SSE daylight
03 Aug - 09:38:39 10° SSW 09:40:38 11° S 09:42:36 10° S daylight
04 Aug - 07:39:10 10° SSW 07:41:42 12° S 07:44:16 10° SSE daylight
04 Aug - 09:27:34 10° SSW 09:29:08 11° S 09:30:41 10° S daylight
05 Aug - 07:27:42 10° SSW 07:30:12 12° S 07:32:44 10° SSE daylight
05 Aug - 09:17:13 10° SSW 09:17:38 10° SSW 09:18:02 10° S daylight
